{"data":{"norad_id":67047,"intl_designator":"2025-294T","name":"STARLINK-35779","alt_names":[],"object_type":"PAYLOAD","status":"ACTIVE","operator":null,"country":"US","launch_date":"2025-12-11","launch_site_code":"AFETR","launch_vehicle":null,"mission":null,"orbit_class":"UNKNOWN","rcs_meters":null,"size_class":null,"mass_kg":null,"dimensions":null,"purposes":["comms"],"wikipedia_slug":null,"has_3d_model":false,"image_url":null,"decayed_at":null,"tle_current":{"epoch":"2026-05-24T21:18:22.070880Z","epoch_age_seconds":88716,"freshness":"FRESH","line1":"1 67047U 25294T   26144.88775545  .00013061  00000+0  48323-3 0  9995","line2":"2 67047  43.0012 327.6700 0001687 271.8211  88.2448 15.27585506 26450","mean_motion":15.27585506,"eccentricity":0.0001687,"inclination_deg":43.0012,"raan_deg":327.67,"arg_perigee_deg":271.8211,"mean_anomaly_deg":88.2448,"bstar":0.00048323,"rev_number":2645,"period_min":94.266408940384,"perigee_km":481.87512983134,"apogee_km":484.19008845746,"semimajor_km":6861.1696091444,"source":"CELESTRAK","updated_at":"2026-05-25T13:38:21.440043Z"}}}